+ View the NASA Portal
+ Center for Near-Earth Object Studies
IMPORTANT:
The SSD Announcement email list is now available. Major changes are coming in the near future, including possible hostname and/or URL changes. To be notified of such changes, subscribe to this email list.
Please visit
this page
for more details.
Don't show this message again
JPL Small-Body Database Browser
Search:
[
help
]
277845 (2006 HA93)
Classification:
Main-belt Asteroid
SPK-ID:
2277845
[
Ephemeris
|
Orbit Diagram
|
Orbital Elements
|
Mission Design
|
Physical Parameters
|
Discovery Circumstances
]
[ show orbit diagram ]
Orbital Elements at Epoch 2458600.5 (2019-Apr-27.0) TDB
Reference:
JPL 13
(heliocentric ecliptic J2000)
Element
Value
Uncertainty (1-sigma)
Units
e
.1218409756510705
6.8255e-08
a
3.001734045684168
3.2165e-08
au
q
2.635999840912974
1.9782e-07
au
i
10.20798228943431
7.4089e-06
deg
node
200.7840375878592
3.4237e-05
deg
peri
141.5257331320703
4.5002e-05
deg
M
75.82581203644025
3.2801e-05
deg
t
p
2458200.397456172584
(2018-Mar-22.89745617)
0.0001705
TDB
period
1899.576304024924
5.20
3.0533e-05
8.359e-08
d
yr
n
.1895159458649872
3.0462e-09
deg/d
Q
3.367468250455362
3.6084e-08
au
Orbit Determination Parameters
# obs. used (total)
155
data-arc span
7746 days (21.21 yr)
first obs. used
1997-10-21
last obs. used
2019-01-05
planetary ephem.
DE431
SB-pert. ephem.
SB431-N16
condition code
0
norm. resid. RMS
.62716
source
ORB
producer
Otto Matic
solution date
2019-Jul-14 07:15:29
Additional Information
Earth MOID
= 1.63718 au
Jupiter MOID
= 2.12757 au
T_jup
= 3.217
[ show covariance matrix ]
[
Ephemeris
|
Orbit Diagram
|
Orbital Elements
|
Mission Design
|
Physical Parameters
|
Discovery Circumstances
]
Physical Parameter Table
Parameter
Symbol
Value
Units
Sigma
Reference
Notes
absolute magnitude
H
16.0
n/a
MPO455061
277845 (2006 HA93)
Discovered 2006-Apr-29 by Spacewatch at Kitt Peak
Reference:
20110517/Numbers.arc
Last Updated:
2011-05-20
Alternate Designations
2006 HA93
= 2002 TH353
[
Ephemeris
|
Orbit Diagram
|
Orbital Elements
|
Mission Design
|
Physical Parameters
|
Discovery Circumstances
]
2019-Dec-13 05:30 UT
(server date/time)
Site Manager:
Ryan S. Park
Webmaster
:
Alan B. Chamberlin